XBBFU MMCU-MMCU

Flight info

Callsign XBBFU
Flight time 1h 12m
Altitude 7500
Route LOCAL
Aircraft C152/L-S/C

Departure

Time 2026-05-07 17:52
Airport General Roberto Fierro Villalobos International Airport (MMCU)

Arrival

Time 2026-05-07 19:04
Airport General Roberto Fierro Villalobos International Airport (MMCU)
Time Latitude Longitude Altitude Speed Heading
2026-05-07 17:23 28.70167 -105.96884 4441 ft 0 kts 188°
2026-05-07 17:38 28.70170 -105.96884 4441 ft 2 kts 188°
2026-05-07 17:38 28.70183 -105.96886 4441 ft 1 kts 108°
2026-05-07 17:39 28.70183 -105.96887 4441 ft 0 kts 99°
2026-05-07 17:42 28.70179 -105.96847 4441 ft 12 kts 98°
2026-05-07 17:42 28.70215 -105.96802 4439 ft 11 kts
2026-05-07 17:42 28.70258 -105.96749 4438 ft 10 kts 31°
2026-05-07 17:42 28.70303 -105.96701 4436 ft 11 kts 95°
2026-05-07 17:43 28.70296 -105.96658 4437 ft 0 kts 102°
2026-05-07 17:43 28.70296 -105.96657 4437 ft 1 kts 101°
2026-05-07 17:43 28.70286 -105.96596 4437 ft 12 kts 103°
2026-05-07 17:44 28.70226 -105.96553 4438 ft 11 kts 160°
2026-05-07 17:44 28.70181 -105.96536 4438 ft 0 kts 160°
2026-05-07 17:48 28.70178 -105.96535 4438 ft 3 kts 159°
2026-05-07 17:48 28.70116 -105.96510 4439 ft 14 kts 163°
2026-05-07 17:48 28.70141 -105.96455 4437 ft 15 kts 54°
2026-05-07 17:48 28.70215 -105.96344 4434 ft 19 kts 51°
2026-05-07 17:49 28.70200 -105.96345 4434 ft 16 kts 243°
2026-05-07 17:49 28.70215 -105.96350 4434 ft 13 kts 53°
2026-05-07 17:49 28.70224 -105.96301 4434 ft 0 kts 262°
2026-05-07 17:50 28.70224 -105.96302 4434 ft 3 kts 251°
2026-05-07 17:50 28.70133 -105.96461 4437 ft 45 kts 236°
2026-05-07 17:51 28.69893 -105.96859 4459 ft 72 kts 240°
2026-05-07 17:51 28.69594 -105.97344 4570 ft 76 kts 239°
2026-05-07 17:51 28.69302 -105.97855 4742 ft 78 kts 239°
2026-05-07 17:51 28.69011 -105.98372 5021 ft 74 kts 233°
2026-05-07 17:52 28.68543 -105.98646 5220 ft 79 kts 187°
2026-05-07 17:52 28.67971 -105.98682 5359 ft 84 kts 184°
2026-05-07 17:52 28.67401 -105.98715 5561 ft 82 kts 184°
2026-05-07 17:52 28.66836 -105.98758 5747 ft 82 kts 181°
2026-05-07 17:53 28.66281 -105.98758 5935 ft 77 kts 179°
2026-05-07 17:53 28.65744 -105.98784 6036 ft 78 kts 185°
2026-05-07 17:53 28.65193 -105.98866 6171 ft 80 kts 189°
2026-05-07 17:53 28.64652 -105.98947 6317 ft 77 kts 187°
2026-05-07 17:54 28.64113 -105.99054 6436 ft 79 kts 190°
2026-05-07 17:54 28.63569 -105.99180 6553 ft 81 kts 190°
2026-05-07 17:54 28.63013 -105.99305 6699 ft 82 kts 193°
2026-05-07 17:54 28.62484 -105.99542 6864 ft 83 kts 210°
2026-05-07 17:55 28.62050 -105.99976 7064 ft 83 kts 223°
2026-05-07 17:55 28.61690 -106.00464 7147 ft 81 kts 225°
2026-05-07 17:55 28.61322 -106.00975 7317 ft 82 kts 228°
2026-05-07 17:55 28.61018 -106.01494 7467 ft 83 kts 232°
2026-05-07 17:56 28.60689 -106.02074 7526 ft 89 kts 233°
2026-05-07 17:56 28.60357 -106.02662 7487 ft 90 kts 233°
2026-05-07 17:56 28.60038 -106.03256 7546 ft 88 kts 235°
2026-05-07 17:56 28.59742 -106.03858 7542 ft 84 kts 234°
2026-05-07 17:57 28.59432 -106.04437 7501 ft 90 kts 231°
2026-05-07 17:57 28.59218 -106.04852 7494 ft 89 kts 236°
2026-05-07 17:57 28.58820 -106.05690 7611 ft 91 kts 236°
2026-05-07 17:57 28.58556 -106.06350 7617 ft 93 kts 240°
2026-05-07 17:58 28.58316 -106.07024 7574 ft 91 kts 244°
2026-05-07 17:58 28.58152 -106.07717 7582 ft 93 kts 254°
2026-05-07 17:58 28.58053 -106.08464 7618 ft 97 kts 256°
2026-05-07 17:58 28.57997 -106.09247 7667 ft 100 kts 260°
2026-05-07 17:59 28.57942 -106.10046 7699 ft 102 kts 257°
2026-05-07 17:59 28.57877 -106.10834 7745 ft 101 kts 256°
2026-05-07 17:59 28.57742 -106.11595 7817 ft 92 kts 252°
2026-05-07 17:59 28.57628 -106.12306 7855 ft 92 kts 254°
2026-05-07 18:00 28.57496 -106.13039 7838 ft 96 kts 250°
2026-05-07 18:00 28.57336 -106.13769 7888 ft 93 kts 249°
2026-05-07 18:00 28.57136 -106.14483 7877 ft 94 kts 248°
2026-05-07 18:00 28.56936 -106.15195 7882 ft 96 kts 244°
2026-05-07 18:01 28.56706 -106.15887 7941 ft 93 kts 242°
2026-05-07 18:01 28.56450 -106.16542 7846 ft 92 kts 231°
2026-05-07 18:01 28.56012 -106.17019 7775 ft 86 kts 210°
2026-05-07 18:01 28.55486 -106.17361 7761 ft 86 kts 202°
2026-05-07 18:02 28.54368 -106.17807 7674 ft 85 kts 192°
2026-05-07 18:02 28.53797 -106.17961 7635 ft 84 kts 191°
2026-05-07 18:02 28.53223 -106.18114 7588 ft 85 kts 188°
2026-05-07 18:03 28.52623 -106.18247 7502 ft 91 kts 188°
2026-05-07 18:03 28.52015 -106.18352 7542 ft 84 kts 184°
2026-05-07 18:03 28.51449 -106.18451 7460 ft 85 kts 185°
2026-05-07 18:03 28.50813 -106.18504 7370 ft 91 kts 183°
2026-05-07 18:04 28.50204 -106.18539 7373 ft 86 kts 180°
2026-05-07 18:04 28.49608 -106.18568 7399 ft 85 kts 183°
2026-05-07 18:04 28.49017 -106.18615 7414 ft 86 kts 184°
2026-05-07 18:04 28.48425 -106.18712 7436 ft 85 kts 192°
2026-05-07 18:05 28.47836 -106.18877 7451 ft 85 kts 191°
2026-05-07 18:05 28.47271 -106.19022 7547 ft 81 kts 189°
2026-05-07 18:05 28.46668 -106.19118 7372 ft 92 kts 185°
2026-05-07 18:05 28.46047 -106.19206 7371 ft 87 kts 187°
2026-05-07 18:06 28.45451 -106.19329 7341 ft 86 kts 190°
2026-05-07 18:06 28.44869 -106.19467 7241 ft 85 kts 193°
2026-05-07 18:06 28.44311 -106.19662 7145 ft 80 kts 197°
2026-05-07 18:06 28.43799 -106.19867 7160 ft 75 kts 198°
2026-05-07 18:07 28.43316 -106.20090 7112 ft 76 kts 201°
2026-05-07 18:07 28.42823 -106.20333 7046 ft 81 kts 196°
2026-05-07 18:07 28.42264 -106.20515 7000 ft 85 kts 194°
2026-05-07 18:07 28.41687 -106.20725 6905 ft 85 kts 197°
2026-05-07 18:08 28.41178 -106.20931 7032 ft 73 kts 199°
2026-05-07 18:08 28.40665 -106.21131 7023 ft 79 kts 198°
2026-05-07 18:08 28.40156 -106.21367 7070 ft 81 kts 205°
2026-05-07 18:08 28.39623 -106.21604 7157 ft 84 kts 199°
2026-05-07 18:09 28.39084 -106.21842 7263 ft 81 kts 195°
2026-05-07 18:09 28.38538 -106.21958 7339 ft 81 kts 187°
2026-05-07 18:09 28.37986 -106.22077 7340 ft 78 kts 189°
2026-05-07 18:09 28.37460 -106.22212 7356 ft 78 kts 190°
2026-05-07 18:10 28.36946 -106.22359 7380 ft 75 kts 191°
2026-05-07 18:10 28.36430 -106.22486 7369 ft 78 kts 187°
2026-05-07 18:10 28.35905 -106.22550 7344 ft 75 kts 184°
2026-05-07 18:10 28.35368 -106.22593 7325 ft 78 kts 187°
2026-05-07 18:11 28.34874 -106.22868 7426 ft 81 kts 216°
2026-05-07 18:11 28.34663 -106.23219 7479 ft 85 kts 244°
2026-05-07 18:11 28.34788 -106.24133 7419 ft 101 kts 304°
2026-05-07 18:11 28.35306 -106.24683 7402 ft 103 kts 316°
2026-05-07 18:12 28.35867 -106.25180 7436 ft 102 kts 314°
2026-05-07 18:12 28.36404 -106.25713 7467 ft 103 kts 313°
2026-05-07 18:12 28.37045 -106.26028 7483 ft 105 kts 13°
2026-05-07 18:12 28.37174 -106.25428 7542 ft 86 kts 140°
2026-05-07 18:13 28.36792 -106.24897 7621 ft 91 kts 118°
2026-05-07 18:13 28.37016 -106.24209 7582 ft 116 kts 21°
2026-05-07 18:13 28.37673 -106.24558 7554 ft 106 kts 312°
2026-05-07 18:13 28.38258 -106.25053 7523 ft 110 kts 337°
2026-05-07 18:14 28.38856 -106.24833 7524 ft 94 kts 89°
2026-05-07 18:14 28.38822 -106.24110 7439 ft 96 kts 98°
2026-05-07 18:14 28.38734 -106.23376 7442 ft 96 kts 93°
2026-05-07 18:14 28.39167 -106.22823 7491 ft 111 kts
2026-05-07 18:15 28.39811 -106.23265 7441 ft 107 kts 296°
2026-05-07 18:15 28.40303 -106.23862 7354 ft 108 kts 326°
2026-05-07 18:15 28.41013 -106.23834 7238 ft 112 kts 41°
2026-05-07 18:15 28.41220 -106.23037 7229 ft 101 kts 104°
2026-05-07 18:16 28.41118 -106.22300 7237 ft 91 kts 98°
2026-05-07 18:16 28.40961 -106.21653 7221 ft 86 kts 145°
2026-05-07 18:16 28.40505 -106.21233 7278 ft 81 kts 147°
2026-05-07 18:16 28.40081 -106.20822 7332 ft 91 kts 110°
2026-05-07 18:17 28.40466 -106.20235 7289 ft 108 kts 10°
2026-05-07 18:17 28.41040 -106.20610 7305 ft 99 kts 301°
2026-05-07 18:17 28.41462 -106.21238 7272 ft 98 kts 296°
2026-05-07 18:17 28.41850 -106.21849 7227 ft 95 kts 294°
2026-05-07 18:18 28.42110 -106.22256 7214 ft 97 kts 303°
2026-05-07 18:18 28.42738 -106.22529 7193 ft 105 kts 17°
2026-05-07 18:18 28.43024 -106.21914 7236 ft 87 kts 111°
2026-05-07 18:18 28.42772 -106.21252 7211 ft 92 kts 127°
2026-05-07 18:19 28.42791 -106.20538 7207 ft 106 kts 52°
2026-05-07 18:19 28.43485 -106.20663 7078 ft 109 kts 303°
2026-05-07 18:19 28.44011 -106.21263 7114 ft 111 kts 328°
2026-05-07 18:19 28.44743 -106.21186 7164 ft 107 kts 39°
2026-05-07 18:20 28.44985 -106.20488 7186 ft 92 kts 108°
2026-05-07 18:20 28.44801 -106.19800 7277 ft 88 kts 117°
2026-05-07 18:20 28.44432 -106.19294 7306 ft 84 kts 159°
2026-05-07 18:20 28.44059 -106.19592 7354 ft 93 kts 265°
2026-05-07 18:21 28.44406 -106.20285 7290 ft 105 kts 304°
2026-05-07 18:21 28.44754 -106.20937 7292 ft 90 kts 260°
2026-05-07 18:21 28.44372 -106.21356 7137 ft 91 kts 172°
2026-05-07 18:21 28.43992 -106.20853 7244 ft 93 kts 117°
2026-05-07 18:22 28.43738 -106.20214 7321 ft 83 kts 141°
2026-05-07 18:22 28.43408 -106.20053 7294 ft 80 kts 191°
2026-05-07 18:22 28.43466 -106.20828 7229 ft 108 kts 312°
2026-05-07 18:22 28.43769 -106.21498 7247 ft 91 kts 249°
2026-05-07 18:23 28.43271 -106.21693 7202 ft 96 kts 146°
2026-05-07 18:23 28.42904 -106.21050 7259 ft 94 kts 134°
2026-05-07 18:23 28.42400 -106.20859 7320 ft 85 kts 216°
2026-05-07 18:23 28.42488 -106.21507 7316 ft 103 kts 301°
2026-05-07 18:24 28.42958 -106.22131 7234 ft 103 kts 290°
2026-05-07 18:24 28.42846 -106.22752 7315 ft 81 kts 201°
2026-05-07 18:24 28.42336 -106.22508 7204 ft 88 kts 129°
2026-05-07 18:24 28.42026 -106.21904 7164 ft 87 kts 124°
2026-05-07 18:25 28.41640 -106.21615 7216 ft 66 kts 216°
2026-05-07 18:25 28.41731 -106.22146 7167 ft 88 kts 299°
2026-05-07 18:25 28.42116 -106.22711 7067 ft 84 kts 272°
2026-05-07 18:25 28.41799 -106.22963 7039 ft 89 kts 153°
2026-05-07 18:26 28.41453 -106.22319 6974 ft 97 kts 125°
2026-05-07 18:26 28.41042 -106.21783 6997 ft 82 kts 172°
2026-05-07 18:26 28.40569 -106.22073 7019 ft 91 kts 244°
2026-05-07 18:26 28.40700 -106.22792 7024 ft 99 kts 297°
2026-05-07 18:27 28.41039 -106.23426 7021 ft 83 kts 264°
2026-05-07 18:27 28.40671 -106.23627 7021 ft 89 kts 146°
2026-05-07 18:27 28.40333 -106.22962 6915 ft 102 kts 122°
2026-05-07 18:27 28.39846 -106.22536 6885 ft 86 kts 184°
2026-05-07 18:28 28.39448 -106.22989 6837 ft 93 kts 253°
2026-05-07 18:28 28.39671 -106.23685 6909 ft 98 kts 294°
2026-05-07 18:28 28.39782 -106.24376 6891 ft 85 kts 229°
2026-05-07 18:28 28.39274 -106.24402 6904 ft 85 kts 142°
2026-05-07 18:29 28.38974 -106.23800 6902 ft 90 kts 125°
2026-05-07 18:29 28.38567 -106.23337 6946 ft 80 kts 172°
2026-05-07 18:29 28.38165 -106.23669 6914 ft 89 kts 247°
2026-05-07 18:29 28.38328 -106.24411 6876 ft 107 kts 295°
2026-05-07 18:30 28.38551 -106.25147 6906 ft 92 kts 244°
2026-05-07 18:30 28.38096 -106.25379 6921 ft 85 kts 155°
2026-05-07 18:30 28.37781 -106.24809 6926 ft 90 kts 117°
2026-05-07 18:30 28.37582 -106.24126 6954 ft 92 kts 102°
2026-05-07 18:31 28.37852 -106.23460 7011 ft 107 kts 39°
2026-05-07 18:31 28.38587 -106.23473 7028 ft 107 kts 316°
2026-05-07 18:31 28.39003 -106.24105 7025 ft 99 kts 293°
2026-05-07 18:31 28.39578 -106.24512 7030 ft 105 kts
2026-05-07 18:32 28.40000 -106.23946 6996 ft 102 kts 91°
2026-05-07 18:32 28.39829 -106.23234 6931 ft 93 kts 118°
2026-05-07 18:32 28.39811 -106.22507 6899 ft 98 kts 59°
2026-05-07 18:32 28.40422 -106.22205 6892 ft 104 kts 345°
2026-05-07 18:33 28.40987 -106.22673 6913 ft 97 kts 296°
2026-05-07 18:33 28.41436 -106.23256 6927 ft 100 kts 324°
2026-05-07 18:33 28.42082 -106.23209 6996 ft 104 kts 46°
2026-05-07 18:33 28.42265 -106.22488 6988 ft 92 kts 107°
2026-05-07 18:34 28.42049 -106.21821 6864 ft 88 kts 123°
2026-05-07 18:34 28.41967 -106.21118 6852 ft 99 kts 81°
2026-05-07 18:34 28.42520 -106.20688 6867 ft 110 kts 352°
2026-05-07 18:34 28.43107 -106.21116 6888 ft 100 kts 305°
2026-05-07 18:35 28.43657 -106.21641 6841 ft 108 kts 326°
2026-05-07 18:35 28.44390 -106.21658 6899 ft 113 kts 35°
2026-05-07 18:35 28.44752 -106.20984 6951 ft 97 kts 97°
2026-05-07 18:35 28.44585 -106.20288 6930 ft 91 kts 126°
2026-05-07 18:36 28.44271 -106.19740 6913 ft 75 kts 152°
2026-05-07 18:36 28.43762 -106.19708 6783 ft 77 kts 180°
2026-05-07 18:36 28.43237 -106.19735 6649 ft 77 kts 187°
2026-05-07 18:36 28.42716 -106.19797 6503 ft 74 kts 193°
2026-05-07 18:37 28.42247 -106.19917 6288 ft 65 kts 198°
2026-05-07 18:37 28.41812 -106.20057 6184 ft 66 kts 205°
2026-05-07 18:37 28.41368 -106.20226 5946 ft 67 kts 202°
2026-05-07 18:37 28.40937 -106.20356 5780 ft 65 kts 197°
2026-05-07 18:38 28.40495 -106.20495 5673 ft 65 kts 199°
2026-05-07 18:38 28.40119 -106.20617 5637 ft 46 kts 200°
2026-05-07 18:38 28.39813 -106.20708 5630 ft 56 kts 195°
2026-05-07 18:38 28.39383 -106.20828 5710 ft 67 kts 200°
2026-05-07 18:39 28.38901 -106.20978 5778 ft 76 kts 197°
2026-05-07 18:39 28.38377 -106.21114 5857 ft 78 kts 196°
2026-05-07 18:39 28.37852 -106.21257 5957 ft 76 kts 198°
2026-05-07 18:39 28.37353 -106.21391 6106 ft 74 kts 199°
2026-05-07 18:40 28.36876 -106.21547 6148 ft 70 kts 199°
2026-05-07 18:40 28.36393 -106.21591 6222 ft 73 kts 182°
2026-05-07 18:40 28.35869 -106.21600 6311 ft 77 kts 193°
2026-05-07 18:40 28.35693 -106.22111 6440 ft 96 kts 298°
2026-05-07 18:41 28.36372 -106.22113 6374 ft 117 kts 36°
2026-05-07 18:41 28.37034 -106.21651 6132 ft 111 kts 31°
2026-05-07 18:41 28.37754 -106.21324 5799 ft 105 kts
2026-05-07 18:41 28.38426 -106.21126 5632 ft 94 kts
2026-05-07 18:42 28.39011 -106.20956 5616 ft 73 kts 15°
2026-05-07 18:42 28.39491 -106.20814 5636 ft 75 kts
2026-05-07 18:42 28.40055 -106.20663 5677 ft 89 kts 11°
2026-05-07 18:42 28.40672 -106.20458 5796 ft 95 kts 14°
2026-05-07 18:43 28.41308 -106.20374 5894 ft 91 kts 343°
2026-05-07 18:43 28.41852 -106.20653 5949 ft 89 kts 315°
2026-05-07 18:43 28.42089 -106.21186 6124 ft 72 kts 272°
2026-05-07 18:43 28.42183 -106.21785 6131 ft 82 kts 267°
2026-05-07 18:44 28.42280 -106.22395 6146 ft 80 kts 284°
2026-05-07 18:44 28.42705 -106.22825 6150 ft 89 kts 332°
2026-05-07 18:44 28.43340 -106.22783 6274 ft 97 kts 11°
2026-05-07 18:44 28.44002 -106.22561 6310 ft 101 kts
2026-05-07 18:45 28.44680 -106.22404 6404 ft 98 kts
2026-05-07 18:45 28.45358 -106.22227 6439 ft 101 kts 10°
2026-05-07 18:45 28.46041 -106.22060 6543 ft 103 kts
2026-05-07 18:45 28.46752 -106.21893 6737 ft 105 kts
2026-05-07 18:46 28.47085 -106.21830 6813 ft 103 kts
2026-05-07 18:49 28.47372 -106.21765 6860 ft 102 kts 12°
2026-05-07 18:49 28.48049 -106.21543 6982 ft 103 kts 21°
2026-05-07 18:49 28.48735 -106.21254 7107 ft 107 kts 25°
2026-05-07 18:50 28.49419 -106.20982 7196 ft 104 kts 22°
2026-05-07 18:50 28.50083 -106.20619 7305 ft 107 kts 33°
2026-05-07 18:50 28.50737 -106.20213 7383 ft 109 kts 34°
2026-05-07 18:50 28.51380 -106.19776 7551 ft 106 kts 33°
2026-05-07 18:51 28.52066 -106.19414 7634 ft 110 kts 26°
2026-05-07 18:51 28.52740 -106.19011 7682 ft 109 kts 32°
2026-05-07 18:51 28.53415 -106.18611 7733 ft 108 kts 31°
2026-05-07 18:51 28.54034 -106.18200 7730 ft 104 kts 32°
2026-05-07 18:52 28.54693 -106.17811 7714 ft 104 kts 30°
2026-05-07 18:52 28.55331 -106.17438 7716 ft 107 kts 30°
2026-05-07 18:52 28.56008 -106.17050 7787 ft 110 kts 29°
2026-05-07 18:52 28.56512 -106.16497 7827 ft 101 kts 75°
2026-05-07 18:53 28.56715 -106.15743 7800 ft 102 kts 82°
2026-05-07 18:53 28.56850 -106.14967 7936 ft 99 kts 88°
2026-05-07 18:53 28.57033 -106.14219 8019 ft 99 kts 78°
2026-05-07 18:53 28.57218 -106.13459 8051 ft 101 kts 87°
2026-05-07 18:54 28.57375 -106.12689 8103 ft 99 kts 85°
2026-05-07 18:54 28.57565 -106.11950 8137 ft 97 kts 81°
2026-05-07 18:54 28.57769 -106.11201 8134 ft 100 kts 85°
2026-05-07 18:54 28.57938 -106.10427 8090 ft 102 kts 81°
2026-05-07 18:55 28.58127 -106.09655 8106 ft 101 kts 86°
2026-05-07 18:55 28.58282 -106.08879 8164 ft 100 kts 88°
2026-05-07 18:55 28.58417 -106.08116 8210 ft 98 kts 89°
2026-05-07 18:55 28.58514 -106.07354 8265 ft 96 kts 90°
2026-05-07 18:56 28.58599 -106.06585 8207 ft 100 kts 91°
2026-05-07 18:56 28.58722 -106.05793 8128 ft 106 kts 82°
2026-05-07 18:56 28.59089 -106.05052 8332 ft 108 kts 58°
2026-05-07 18:56 28.59663 -106.04496 8268 ft 110 kts 50°
2026-05-07 18:57 28.60238 -106.03901 8164 ft 112 kts 44°
2026-05-07 18:57 28.60845 -106.03388 8069 ft 107 kts 43°
2026-05-07 18:57 28.61451 -106.02883 7963 ft 108 kts 37°
2026-05-07 18:57 28.62062 -106.02420 7877 ft 104 kts 38°
2026-05-07 18:58 28.62673 -106.01976 7790 ft 105 kts 37°
2026-05-07 18:58 28.63290 -106.01519 7643 ft 105 kts 38°
2026-05-07 18:58 28.63897 -106.01090 7573 ft 99 kts 34°
2026-05-07 18:58 28.64503 -106.00702 7440 ft 100 kts 34°
2026-05-07 18:59 28.65078 -106.00325 7297 ft 93 kts 29°
2026-05-07 18:59 28.65635 -105.99969 7101 ft 92 kts 36°
2026-05-07 18:59 28.66209 -105.99608 6943 ft 92 kts 37°
2026-05-07 18:59 28.66754 -105.99222 6761 ft 91 kts 41°
2026-05-07 19:00 28.67278 -105.98771 6583 ft 98 kts 31°
2026-05-07 19:00 28.67894 -105.98418 6399 ft 97 kts
2026-05-07 19:00 28.68534 -105.98228 5960 ft 96 kts
2026-05-07 19:00 28.69155 -105.97946 5634 ft 93 kts 13°
2026-05-07 19:01 28.69737 -105.97709 5501 ft 85 kts
2026-05-07 19:01 28.70317 -105.97588 5513 ft 87 kts 356°
2026-05-07 19:01 28.70914 -105.97494 5644 ft 86 kts
2026-05-07 19:01 28.71522 -105.97512 5676 ft 84 kts 353°
2026-05-07 19:02 28.72115 -105.97483 5659 ft 90 kts
2026-05-07 19:02 28.72754 -105.97402 5661 ft 91 kts
2026-05-07 19:02 28.73235 -105.97072 5701 ft 82 kts 83°
2026-05-07 19:02 28.73237 -105.96421 5547 ft 83 kts 107°
2026-05-07 19:03 28.72963 -105.96194 5297 ft 85 kts 180°
2026-05-07 19:03 28.72371 -105.96116 5081 ft 80 kts 185°
2026-05-07 19:03 28.71711 -105.96256 4561 ft 67 kts 198°
2026-05-07 19:03 28.71308 -105.96350 4426 ft 54 kts 194°
2026-05-07 19:04 28.70969 -105.96427 4423 ft 43 kts 187°
2026-05-07 19:04 28.70853 -105.96370 4423 ft 20 kts 76°
2026-05-07 19:04 28.70896 -105.96397 4423 ft 15 kts 246°
2026-05-07 19:04 28.70804 -105.96456 4425 ft 29 kts 191°
2026-05-07 19:05 28.70475 -105.96540 4438 ft 64 kts 195°
2026-05-07 19:05 28.70013 -105.96652 4511 ft 72 kts 183°
2026-05-07 19:05 28.69517 -105.96783 4650 ft 74 kts 186°
2026-05-07 19:05 28.69022 -105.96904 4887 ft 72 kts 181°
2026-05-07 19:06 28.68512 -105.96884 5164 ft 73 kts 179°
2026-05-07 19:06 28.68144 -105.97760 5588 ft 82 kts 269°
2026-05-07 19:06 28.68543 -105.98203 5641 ft 102 kts 357°
2026-05-07 19:07 28.69247 -105.98077 5673 ft 101 kts 12°
2026-05-07 19:07 28.69936 -105.97897 5765 ft 102 kts
2026-05-07 19:07 28.70621 -105.97782 5893 ft 98 kts
2026-05-07 19:07 28.71293 -105.97794 6020 ft 93 kts 357°
2026-05-07 19:08 28.71940 -105.97743 5970 ft 95 kts
2026-05-07 19:08 28.72603 -105.97723 5866 ft 97 kts
2026-05-07 19:08 28.73247 -105.97665 5735 ft 91 kts
2026-05-07 19:08 28.73797 -105.97420 5683 ft 79 kts 57°
2026-05-07 19:09 28.73953 -105.96821 5625 ft 83 kts 103°
2026-05-07 19:09 28.73856 -105.96163 5578 ft 87 kts 116°
2026-05-07 19:09 28.73404 -105.95885 5554 ft 77 kts 187°
2026-05-07 19:09 28.72845 -105.95992 5209 ft 85 kts 190°
2026-05-07 19:10 28.72271 -105.96152 4992 ft 81 kts 187°
2026-05-07 19:10 28.71756 -105.96286 4835 ft 65 kts 199°
2026-05-07 19:10 28.71244 -105.96371 4421 ft 73 kts 185°
2026-05-07 19:10 28.70835 -105.96451 4425 ft 49 kts 192°
2026-05-07 19:11 28.70453 -105.96542 4443 ft 66 kts 189°
2026-05-07 19:11 28.69993 -105.96649 4553 ft 69 kts 186°
2026-05-07 19:11 28.69517 -105.96784 4701 ft 71 kts 188°
2026-05-07 19:11 28.69044 -105.96888 4951 ft 72 kts 179°
2026-05-07 19:12 28.68541 -105.96911 5248 ft 71 kts 203°
2026-05-07 19:12 28.68325 -105.97405 5494 ft 78 kts 266°
2026-05-07 19:12 28.68443 -105.98028 5618 ft 85 kts 286°
2026-05-07 19:12 28.69033 -105.98285 5644 ft 105 kts
2026-05-07 19:13 28.69749 -105.98177 5715 ft 102 kts
2026-05-07 19:13 28.70450 -105.98120 5769 ft 101 kts 352°
2026-05-07 19:13 28.71134 -105.98081 5932 ft 98 kts
2026-05-07 19:13 28.71833 -105.98062 6006 ft 99 kts
2026-05-07 19:14 28.72505 -105.98003 6045 ft 99 kts
2026-05-07 19:14 28.73220 -105.97877 6084 ft 108 kts 13°
2026-05-07 19:14 28.73927 -105.97729 6137 ft 101 kts
2026-05-07 19:14 28.74598 -105.97540 6130 ft 103 kts 29°
2026-05-07 19:15 28.75025 -105.97000 6132 ft 90 kts 83°
2026-05-07 19:15 28.75011 -105.96307 5972 ft 87 kts 108°
2026-05-07 19:15 28.74808 -105.95667 5755 ft 78 kts 154°
2026-05-07 19:15 28.74278 -105.95652 5695 ft 76 kts 188°
2026-05-07 19:16 28.73730 -105.95769 5541 ft 83 kts 194°
2026-05-07 19:16 28.73177 -105.95903 5319 ft 78 kts 193°
2026-05-07 19:16 28.72664 -105.96049 4982 ft 79 kts 192°
2026-05-07 19:16 28.72154 -105.96183 4764 ft 73 kts 181°
2026-05-07 19:17 28.71666 -105.96280 4562 ft 69 kts 184°
2026-05-07 19:17 28.71218 -105.96374 4420 ft 58 kts 182°
2026-05-07 19:17 28.70895 -105.96437 4423 ft 38 kts 191°
2026-05-07 19:17 28.70671 -105.96486 4428 ft 28 kts 195°
2026-05-07 19:18 28.70514 -105.96523 4433 ft 17 kts 193°
2026-05-07 19:18 28.70454 -105.96558 4433 ft 8 kts 244°
2026-05-07 19:18 28.70441 -105.96622 4433 ft 9 kts 261°
2026-05-07 19:18 28.70424 -105.96706 4433 ft 11 kts 221°
2026-05-07 19:19 28.70364 -105.96722 4435 ft 8 kts 188°
2026-05-07 19:19 28.70294 -105.96736 4437 ft 13 kts 190°
2026-05-07 19:19 28.70195 -105.96758 4439 ft 16 kts 191°
2026-05-07 19:19 28.70132 -105.96789 4441 ft 8 kts 265°
2026-05-07 19:20 28.70170 -105.96809 4440 ft 4 kts 321°
2026-05-07 19:20 28.70175 -105.96850 4441 ft 5 kts 263°
2026-05-07 19:20 28.70162 -105.96862 4441 ft 0 kts 191°